EW5523 Weather Reports


time (UTC)temp
C
wind
direction
speed
KPH
gust
KPH
rain 1hr
cm
rain 24hr
cm
rain mn
cm
humidity
%
barometer
mb
20201025140133 2 359 0.0 4.8 0.00 0.38 0.15 87 1007.2
20201025134634 2 314 0.0 3.2 0.00 0.38 0.15 84 1007.2
20201025133151 2 315 0.0 3.2 0.00 0.38 0.15 84 1007.2
20201025131731 2 315 0.0 3.2 0.00 0.38 0.15 84 1007.3
20201025130328 2 315 0.0 3.2 0.00 0.46 0.15 84 1007.2
20201025124747 2 314 1.6 6.4 0.00 0.46 0.15 82 1007.2
20201025123135 2 320 0.0 3.2 0.00 0.46 0.15 83 1007.2
20201025121749 2 320 0.0 4.8 0.00 0.46 0.15 84 1007.4
20201025120250 2 330 0.0 3.2 0.00 0.53 0.15 84 1007.4
20201025114732 2 328 0.0 4.8 0.00 0.53 0.15 84 1007.5
20201025113121 3 326 0.0 1.6 0.00 0.53 0.15 83 1007.4
20201025111637 3 323 1.6 3.2 0.00 0.53 0.15 83 1007.4
20201025110139 3 328 0.0 6.4 0.00 0.61 0.15 82 1007.4
20201025104707 3 318 4.8 9.7 0.00 0.61 0.15 81 1007.3
20201025103301 2 299 1.6 6.4 0.00 0.61 0.15 84 1007.3
20201025101644 2 288 1.6 8.0 0.00 0.61 0.15 85 1007.3
20201025100137 2 289 3.2 8.0 0.00 0.76 0.15 85 1007.4
20201025094615 2 293 1.6 6.4 0.00 0.76 0.15 86 1007.4
20201025093212 2 292 1.6 6.4 0.00 0.76 0.15 87 1007.3
20201025091647 2 313 0.0 3.2 0.00 0.76 0.15 87 1007.3
20201025090123 2 305 0.0 4.8 0.00 0.94 0.15 87 1007.3
20201025084626 2 294 1.6 4.8 0.00 0.94 0.15 89 1007.3
20201025083237 2 236 1.6 4.8 0.00 0.94 0.15 87 1007.3
20201025081638 2 313 0.0 8.0 0.00 0.94 0.15 87 1007.4
20201025080218 2 268 0.0 6.4 0.00 1.17 0.15 89 1007.5
20201025074643 2 312 0.0 6.4 0.00 1.17 0.15 91 1007.3
20201025073147 2 346 1.6 8.0 0.00 1.17 0.15 92 1007.4
20201025071619 2 265 3.2 8.0 0.00 1.17 0.15 92 1007.4
20201025070111 2 332 0.0 4.8 0.00 1.35 0.15 93 1007.2
20201025064625 2 308 3.2 8.0 0.00 1.35 0.15 93 1007.2
20201025063104 1 354 1.6 8.0 0.00 1.35 0.15 93 1007.2
20201025061549 2 337 0.0 6.4 0.00 1.35 0.15 94 1007.4
20201025060141 2 325 0.0 6.4 0.00 1.50 0.15 94 1007.3
20201025054653 2 333 1.6 6.4 0.00 1.50 0.15 95 1007.5
20201025053125 2 299 0.0 4.8 0.00 1.50 0.15 95 1007.6
20201025051557 1 310 3.2 6.4 0.00 1.50 0.15 95 1007.7
20201025050101 1 282 0.0 8.0 0.00 1.55 0.15 95 1007.7
20201025044611 1 296 4.8 9.7 0.00 1.55 0.15 95 1007.6
20201025043121 2 303 1.6 6.4 0.00 1.55 0.15 95 1007.2
20201025041551 2 312 1.6 4.8 0.00 1.55 0.15 95 1007.1
20201025040258 2 303 1.6 8.0 0.00 1.55 0.15 94 1007.0
20201025034604 2 301 3.2 8.0 0.00 1.55 0.15 95 1006.8
20201025033101 2 299 1.6 9.7 0.00 1.55 0.15 94 1006.6
20201025031546 2 308 4.8 9.7 0.00 1.55 0.15 95 1006.6
20201025030034 2 300 3.2 14.5 0.00 1.55 0.15 95 1006.4
20201025024531 2 303 4.8 12.9 0.00 1.55 0.15 95 1006.2
20201025023042 2 315 3.2 8.0 0.00 1.55 0.15 95 1006.2
20201025021626 2 305 1.6 9.7 0.00 1.55 0.15 95 1006.1
20201025020037 2 272 1.6 6.4 0.00 1.55 0.15 95 1006.0
20201025014534 2 280 1.6 9.7 0.00 1.55 0.15 95 1005.8
20201025013038 3 281 3.2 8.0 0.03 1.55 0.15 96 1005.8
20201025011515 3 274 0.0 6.4 0.03 1.55 0.15 95 1005.7
20201025010029 3 241 0.0 4.8 0.03 1.55 0.15 95 1005.5
20201025004811 3 274 0.0 3.2 0.03 1.55 0.15 95 1005.5
20201025003311 3 274 0.0 3.2 0.00 1.52 0.13 95 1005.1
20201025001654 3 274 0.0 1.6 0.00 1.52 0.13 95 1005.2
20201025000215 4 274 0.0 4.8 0.00 1.52 0.13 95 1005.0
20201024234610 4 273 0.0 4.8 0.03 1.52 0.13 96 1005.1
20201024233132 4 277 3.2 8.0 0.03 1.52 0.13 96 1005.2
20201024231650 5 283 1.6 11.3 0.05 1.52 0.13 96 1005.0
20201024230209 5 310 3.2 14.5 0.05 1.52 0.13 96 1004.9
20201024224604 5 276 3.2 11.3 0.03 1.50 0.10 96 1004.8
20201024223111 5 275 3.2 11.3 0.05 1.50 0.10 96 1004.8
20201024221558 5 283 4.8 12.9 0.03 1.45 0.08 97 1004.7
20201024220257 5 314 3.2 9.7 0.03 1.45 0.08 97 1004.5
20201024214605 5 291 6.4 16.1 0.05 1.45 0.08 97 1004.2
20201024213036 6 293 3.2 8.0 0.03 1.42 0.05 97 1004.1
20201024211621 6 253 0.0 4.8 0.03 1.42 0.05 97 1003.7
20201024210109 6 283 0.0 9.7 0.05 1.42 0.05 97 1003.7
20201024204559 6 226 0.0 6.4 0.03 1.42 0.03 97 1003.6
20201024203033 6 241 1.6 11.3 0.03 1.42 0.03 97 1003.6
20201024201618 6 270 0.0 4.8 0.03 1.42 0.03 97 1003.6
20201024200032 6 267 0.0 9.7 0.03 1.40 1.40 97 1003.6
20201024194542 6 331 1.6 8.0 0.03 1.40 1.40 97 1003.4
20201024193035 6 247 0.0 12.9 0.03 1.40 1.40 97 1003.4
20201024191528 6 269 0.0 8.0 0.03 1.40 1.40 97 1003.3
20201024190044 7 259 1.6 8.0 0.00 1.37 1.37 97 1003.1
20201024184610 7 275 1.6 9.7 0.00 1.37 1.37 97 1003.0
20201024183034 7 262 0.0 9.7 0.03 1.37 1.37 97 1002.9
20201024181544 7 271 3.2 9.7 0.03 1.37 1.37 97 1002.8
20201024180025 6 238 3.2 11.3 0.05 1.37 1.37 97 1002.6
20201024174526 6 256 3.2 9.7 0.05 1.37 1.37 97 1002.5
20201024173040 6 208 0.0 8.0 0.03 1.35 1.35 97 1002.5
20201024171531 6 223 0.0 6.4 0.03 1.35 1.35 97 1002.3
20201024170032 6 253 0.0 4.8 0.00 1.32 1.32 97 1002.3
20201024164527 6 256 0.0 1.6 0.03 1.32 1.32 97 1002.2
20201024163035 6 256 0.0 4.8 0.03 1.32 1.32 97 1002.1
20201024161559 6 254 0.0 8.0 0.05 1.32 1.32 97 1002.0
20201024160023 6 269 0.0 8.0 0.08 1.32 1.32 97 1002.0
20201024154518 6 222 0.0 11.3 0.05 1.30 1.30 97 1001.8
20201024153027 6 289 0.0 4.8 0.05 1.30 1.30 97 1001.7
20201024151525 6 254 0.0 3.2 0.05 1.27 1.27 97 1001.6
20201024150024 6 254 0.0 0.0 0.03 1.24 1.24 97 1001.6
20201024144547 6 254 0.0 0.0 0.05 1.24 1.24 97 1001.5
20201024143109 6 254 0.0 0.0 0.03 1.22 1.22 97 1001.5
20201024141547 6 254 0.0 1.6 0.05 1.22 1.22 97 1001.2